Flag for U.S.A. Weather past 2 weeks in Grand Rapids, Michigan, U.S.A.

Now
60 °F

Clear.


Feels Like: 60 °F
Forecast: 59 / 78 °F
Wind: No wind

Location: Kent County International Airport

Current Time: Aug 27, 2014 at 5:32:19 AM

Latest Report: Aug 27, 2014 at 4:53 AM


Visibility: 10 mi

Pressure: 30.11 "Hg

Humidity: 100%

Dew point: 60 °F

Location of Grand RapidsLocation

Historic Weather in Grand Rapids — Graph

°F

Grand Rapids temperature yesterday

Maximum temperature yesterday: 80 °F (at 10:53 AM)
Minimum temperature yesterday: 66 °F (at 11:53 PM)
Average temperature yesterday: 72 °F

Past Weeks' High & Low Weather Summary

 TemperatureHumidityPressure
High85 °F (Aug 25, 12:53 PM)100% (Aug 12, 12:53 PM)30.12 "Hg (Aug 12, 12:53 PM)
Low47 °F (Aug 15, 6:53 AM)37% (Aug 15, 4:53 PM)29.67 "Hg (Aug 12, 4:53 AM)
Average70 °F83%29.95 "Hg
* Reported Aug 12 3:53 AM — Aug 27 3:53 AM, Grand Rapids, Weather by CustomWeather, © 2014

Note: Actual official high and low records may vary slightly from our data, if they occured in-between our weather recording intervals... More about our weather records

Advertising

Grand Rapids weather history for previous 24 hours

 ConditionsComfort  
Time TempWeatherWind HumidityBarometerVisibility
3:53 AM
Aug 27
62 °FClear.No wind100%30.11 "Hg10 mi
2:53 AM62 °FClear.3 mph100%30.11 "Hg10 mi
1:53 AM64 °FClear.No wind94%30.12 "Hg10 mi
12:53 AM64 °FClear.No wind90%30.11 "Hg10 mi
11:53 PM
Aug 26
66 °FClear.No wind84%30.09 "Hg10 mi
10:53 PM67 °FClear.7 mph85%30.08 "Hg10 mi
9:53 PM68 °FPassing clouds.8 mph87%30.07 "Hg10 mi
8:53 PM70 °FScattered clouds.8 mph84%30.06 "Hg10 mi
7:53 PM72 °FScattered clouds.9 mph81%30.06 "Hg10 mi
6:53 PM73 °FPartly sunny.13 mph84%30.07 "Hg9 mi
5:53 PM74 °FOvercast.13 mph85%30.06 "Hg10 mi
4:53 PM74 °FBroken clouds.8 mph91%30.06 "Hg10 mi
3:53 PM71 °FLight rain. Broken clouds.10 mph93%30.00 "Hg10 mi
3:03 PM70 °FThunderstorms. More clouds than sun.No wind100%30.10 "Hg7 mi
2:53 PM70 °FThunderstorms. Fog.3 mph100%30.09 "Hg5 mi
1:53 PM78 °FOvercast.15 mph82%30.09 "Hg10 mi
12:53 PM80 °FMostly cloudy.8 mph81%30.07 "Hg10 mi
11:53 AM80 °FMostly cloudy.10 mph81%30.08 "Hg10 mi
10:53 AM80 °FBroken clouds.12 mph79%30.07 "Hg10 mi
9:53 AM78 °FPartly sunny.12 mph82%30.07 "Hg10 mi
8:53 AM75 °FScattered clouds.10 mph88%30.06 "Hg10 mi
7:53 AM72 °FPassing clouds.8 mph93%30.06 "Hg7 mi
6:53 AM70 °FPassing clouds.5 mph97%30.04 "Hg7 mi
5:53 AM70 °FClear.7 mph97%30.02 "Hg7 mi
Weather by CustomWeather, © 2014

See weather overviewHow to use our weather pages